Temperature
21 21 21 21 24 24 23 22 22 22 22 21 20 21 21 21 21 20 17 16 16 16 17 17 17 17 17 17 17 17 17 17 17 17 17 17 17 17 17 17 17 17 17 17 17 17 17 17 17
21 21 21 23 24 24 22 22 22 22 21 20 20 21 21 20 18 17 16 16 16 16 16 17 17 17 17 17 17 17 17 17 17 17 17 17 17 17 17 17 17 17 17 17 17 17 17 17 17
21 21 22 24 24 23 22 22 22 21 20 21 21 20 20 19 18 17 16 16 16 16 16 17 17 17 17 17 17 17 17 17 17 17 17 17 17 17 17 17 17 17 17 17 17 17 17 17 17
21 22 23 24 22 22 22 22 22 22 21 21 21 21 19 17 17 17 16 16 16 16 16 17 17 17 17 17 17 17 17 17 17 17 17 17 17 17 17 17 17 17 17 17 16 16 17 17 17
21 23 24 23 22 22 22 22 21 22 22 21 21 21 19 17 17 16 16 16 16 16 16 16 17 17 17 17 17 17 17 17 16 16 16 17 16 16 16 16 16 16 16 16 16 16 16 16 16
22 24 23 22 22 22 22 21 22 22 21 21 21 20 18 17 17 16 16 16 16 16 16 16 17 17 17 17 17 17 16 16 16 16 16 16 16 16 16 16 16 16 16 16 16 16 16 16 16
23 24 23 22 22 22 22 21 22 22 21 21 20 20 18 17 16 16 16 16 16 16 16 16 16 16 17 17 17 16 16 16 16 16 16 16 16 16 16 16 16 16 16 16 16 16 16 16 16
22 24 23 22 22 22 22 21 21 21 21 19 20 21 19 17 16 16 16 16 16 16 16 16 16 16 16 16 16 16 16 16 16 16 16 16 16 16 16 16 16 16 16 16 16 16 16 16 16
22 23 23 22 22 22 21 21 20 20 20 19 19 19 18 17 16 16 16 16 16 16 16 16 16 16 16 16 16 16 16 16 16 16 16 16 16 16 16 16 16 16 16 16 16 16 15 15 15
23 23 22 23 23 22 21 21 21 21 21 20 19 18 17 17 17 17 17 17 17 17 16 16 16 16 16 16 16 16 15 15 15 15 15 15 15 15 15 16 16 16 16 15 15 16 15 15 15
23 22 22 22 22 21 21 21 20 21 21 21 20 18 17 17 17 17 17 17 17 16 16 16 16 16 16 16 16 16 15 15 15 15 15 15 15 15 15 15 15 15 15 15 15 15 15 15 15
22 22 22 21 21 21 21 21 20 20 20 20 19 18 18 18 18 18 17 17 17 16 16 16 16 16 16 16 16 15 15 15 15 15 15 15 15 15 15 15 15 15 15 15 15 15 15 15 15
22 21 20 20 20 20 20 20 20 20 19 19 18 18 18 18 18 18 17 17 17 16 16 16 16 16 16 16 15 15 15 15 15 15 15 15 15 15 15 15 15 15 15 15 15 15 15 14 14
21 21 20 20 20 20 20 20 20 20 19 18 18 18 18 18 18 18 17 17 17 16 16 16 16 16 15 15 15 15 15 15 15 15 15 15 15 15 14 15 14 14 14 14 14 14 14 14 14
21 21 21 21 21 21 21 21 21 19 19 19 18 18 18 17 17 17 17 17 17 16 16 16 16 16 15 15 15 15 15 15 15 14 14 15 15 14 14 14 14 14 14 14 14 14 14 14 14
22 22 21 21 21 20 21 21 21 19 19 19 19 18 18 17 17 17 17 17 16 16 16 16 15 15 15 15 15 15 15 15 15 14 14 14 14 14 14 14 14 14 14 14 14 14 14 14 14
22 21 21 21 21 21 21 21 21 19 19 19 19 18 18 17 17 17 17 16 16 16 16 16 15 15 15 15 15 15 14 14 14 14 14 14 14 14 14 14 14 14 14 14 14 13 13 13 13
21 21 21 21 21 20 20 21 21 19 19 19 19 18 18 18 17 17 17 16 16 16 16 16 15 15 15 15 15 14 14 14 14 14 14 14 14 14 14 14 14 13 13 13 13 13 13 13 13
22 22 21 21 21 20 21 21 21 20 19 19 19 19 18 18 17 17 16 16 16 16 16 16 15 15 15 15 14 14 14 14 14 14 14 14 14 14 14 13 13 13 13 13 13 13 13 13 13
22 21 21 21 20 21 21 21 21 20 19 19 19 19 18 18 17 17 16 16 16 16 16 15 15 15 15 15 14 14 14 14 14 13 13 13 13 13 13 13 13 13 13 13 13 13 12 12 13
22 21 21 21 20 21 21 21 21 21 20 19 18 18 18 18 18 17 17 16 16 16 16 15 15 15 15 15 14 14 14 13 13 13 13 13 13 13 13 13 12 12 12 12 12 12 12 12 12
21 21 21 20 21 21 21 21 22 21 20 19 18 18 18 17 17 17 16 16 16 16 15 15 15 15 15 15 14 14 14 13 13 13 13 13 13 13 13 12 12 12 12 12 12 12 12 12 11
21 21 21 21 21 21 21 21 22 21 21 20 19 18 17 17 17 16 16 16 16 15 15 15 15 15 15 14 14 14 13 13 13 13 13 13 13 13 12 12 12 12 12 12 12 12 11 11 11
20 21 20 21 21 20 21 21 21 22 21 21 20 18 17 17 16 16 16 15 15 15 15 15 15 15 15 14 14 13 13 13 13 13 13 12 12 12 12 12 12 12 12 11 11 11 11 11 11
21 21 20 20 20 21 21 20 21 21 21 20 19 18 17 17 16 16 15 15 15 15 15 15 15 15 14 14 14 13 13 13 13 13 12 12 12 12 12 12 12 11 11 11 11 11 11 11 11
21 21 20 20 21 21 20 20 21 20 19 18 18 17 16 16 16 15 15 15 15 15 15 15 15 14 14 14 13 13 13 13 13 12 12 12 12 12 12 11 11 11 11 11 11 11 11 10 10
21 21 21 21 21 20 21 21 21 20 19 18 18 17 16 16 15 15 15 15 15 15 15 14 14 14 14 13 13 13 13 13 13 12 12 12 12 12 11 11 11 11 11 11 11 10 10 10 10
21 21 20 20 20 20 20 21 21 20 20 19 18 17 16 15 15 14 15 15 15 15 14 14 14 14 13 13 13 13 13 12 12 12 12 12 12 11 11 11 11 11 11 11 10 10 10 10 10
20 20 20 20 20 20 20 21 21 20 20 19 18 17 16 15 14 14 14 14 14 14 14 14 14 13 13 13 13 12 12 12 12 12 12 11 11 11 11 11 11 11 10 10 10 10 9 9 9
20 20 20 20 20 20 20 20 20 20 19 18 18 16 15 14 14 14 13 14 14 14 14 13 13 13 13 13 12 12 12 12 12 12 11 11 11 11 11 11 10 10 10 10 10 9 9 9 9
Wind_Speed
1 1 1 1 1 4 5 4 3 4 3 5 5 4 5 5 5 5 4 3 4 5 6 7 10 11 12 12 12 13 13 13 13 13 13 13 12 12 12 11 11 11 10 10 10 10 10 10 10
0 0 1 1 1 4 5 4 5 5 5 4 4 4 5 5 6 5 4 4 4 6 6 9 10 11 12 12 12 13 13 13 13 13 13 13 13 13 12 13 12 12 11 11 11 11 10 10 9
1 0 1 1 3 4 5 5 6 6 4 2 3 4 4 4 5 4 5 4 5 6 7 9 10 11 11 12 12 12 13 13 13 13 14 14 14 14 14 14 13 13 13 12 12 11 11 10 10
1 0 1 4 8 6 5 6 5 5 4 3 4 5 5 5 3 5 6 5 6 6 7 9 10 11 11 12 12 12 12 12 13 13 14 14 14 14 14 14 14 13 13 13 13 12 12 11 10
0 1 3 5 7 6 5 4 3 4 3 4 4 6 6 6 7 7 6 5 6 6 7 9 10 11 11 11 12 12 12 12 13 13 14 14 14 13 13 13 13 13 13 13 13 12 12 12 11
1 1 4 6 6 5 5 4 4 5 6 5 5 6 5 6 7 6 6 5 6 6 7 8 10 10 11 11 12 12 12 12 13 13 13 13 13 13 13 13 13 12 12 12 13 12 12 12 11
1 2 4 7 7 5 4 4 4 5 5 4 3 4 5 6 6 6 5 5 6 6 6 6 7 9 10 10 11 11 11 12 12 12 12 12 12 12 12 12 12 12 12 12 12 12 11 12 12
1 3 5 5 6 5 5 5 4 4 5 4 2 3 5 7 6 6 5 5 5 5 5 6 7 7 8 9 10 10 11 11 11 11 11 10 10 10 11 12 12 12 12 12 12 12 11 11 11
2 3 4 5 5 5 6 6 4 3 5 4 3 4 6 8 7 6 5 5 5 5 4 5 6 6 7 7 8 8 8 8 7 8 8 7 7 9 9 13 12 12 12 12 11 11 10 8 10
2 3 4 3 4 6 6 5 5 5 5 4 5 6 8 8 7 6 5 5 4 4 4 4 5 5 6 6 6 6 6 7 7 8 7 7 7 8 8 10 11 11 10 10 10 9 7 5 6
3 3 5 5 5 7 6 5 4 5 3 3 5 7 8 7 6 5 4 4 3 3 3 3 4 4 5 4 5 5 5 5 6 8 8 7 6 6 6 6 7 7 7 7 7 6 6 6 6
5 5 4 5 5 5 5 5 3 2 1 2 5 7 8 7 6 4 4 3 3 3 3 3 3 3 4 4 4 4 4 5 5 6 8 6 5 5 6 5 6 6 6 6 6 5 7 7 7
5 5 6 6 6 5 5 4 3 2 2 4 5 6 7 6 5 4 3 3 3 3 3 3 3 2 3 3 3 4 4 5 6 6 6 7 5 5 5 5 5 6 6 5 5 5 6 6 7
6 7 6 5 4 4 4 3 2 2 4 5 6 6 6 5 5 4 4 3 3 3 3 3 3 2 3 3 3 4 4 4 5 5 6 6 6 5 5 5 5 6 5 5 5 5 5 5 5
8 8 5 2 2 2 3 2 2 3 5 5 5 5 5 4 4 4 4 3 3 3 4 3 3 3 3 3 4 4 4 5 5 5 5 6 6 5 5 5 5 5 5 5 5 5 4 4 4
5 4 3 1 1 1 4 2 1 3 5 5 5 5 5 5 5 4 4 3 3 3 4 4 3 2 3 3 4 4 4 4 4 4 4 5 6 6 5 4 4 5 5 4 4 4 3 4 4
5 4 3 2 1 2 3 3 1 3 5 5 5 5 5 5 5 5 5 4 4 4 4 4 3 2 3 3 4 4 4 4 4 4 4 4 5 5 5 4 4 5 4 4 4 4 3 3 3
5 4 3 3 2 3 4 4 2 3 4 5 5 5 5 6 5 5 5 4 4 4 4 4 4 2 3 3 3 3 3 3 3 3 3 4 4 4 4 3 4 4 4 4 4 4 3 3 2
4 4 3 2 2 3 5 5 4 4 4 5 5 6 6 6 6 5 5 5 5 5 4 4 4 3 2 2 2 1 2 1 2 3 3 3 3 4 4 3 3 3 3 4 4 3 3 3 2
5 5 4 2 2 4 5 6 4 4 5 5 5 6 6 6 6 6 6 6 6 6 5 5 4 4 3 2 2 1 1 1 2 2 2 3 3 3 3 2 2 3 3 3 4 3 2 2 2
6 6 5 3 2 4 4 5 4 3 4 4 4 5 5 6 6 7 7 7 6 6 6 5 5 5 4 4 2 2 2 1 1 1 1 2 2 2 2 2 2 2 2 2 2 2 3 2 2
5 3 4 4 5 3 4 5 3 3 3 3 3 4 5 5 6 6 6 7 7 7 7 6 6 5 5 5 4 4 3 2 1 0 1 1 1 2 2 2 2 1 2 2 2 2 2 2 2
2 2 4 5 5 6 5 6 3 2 3 3 3 3 4 5 6 6 6 6 6 6 6 6 6 5 5 5 5 4 3 2 1 1 1 0 1 1 2 2 1 2 1 1 2 1 2 1 2
4 4 3 4 5 6 5 5 4 2 4 3 3 2 2 3 4 5 5 5 5 5 6 6 6 6 5 6 6 5 4 3 2 2 1 0 0 1 1 2 1 2 2 2 2 2 1 1 1
6 5 3 4 5 4 1 5 4 2 2 4 3 2 2 2 3 4 4 5 5 5 6 6 7 7 6 6 6 6 5 4 4 3 2 1 1 1 1 1 2 2 2 2 2 2 2 2 2
7 7 5 4 5 3 3 5 2 1 2 3 3 2 1 2 3 3 4 4 5 5 6 6 7 7 7 6 6 5 5 3 2 3 2 1 1 1 1 1 2 2 2 2 1 2 2 2 2
6 6 6 6 6 6 5 4 3 2 2 1 1 1 2 2 2 2 3 3 4 5 6 6 7 6 6 6 6 5 5 4 3 3 2 2 1 1 1 1 1 1 1 1 2 2 2 2 2
4 4 4 5 5 6 6 6 4 3 3 2 2 2 2 2 2 2 2 2 2 3 4 5 6 6 6 6 5 4 5 4 4 3 3 2 2 1 1 1 1 1 1 1 2 2 2 2 2
6 6 5 5 6 6 6 4 1 3 3 3 3 3 2 2 2 2 1 1 1 2 2 3 5 5 6 6 6 5 5 4 4 3 3 2 2 2 1 1 1 2 2 2 2 2 2 2 2
6 7 7 7 7 7 8 5 0 3 3 3 3 2 1 2 2 1 1 1 1 2 2 2 3 4 5 5 6 5 5 4 4 3 3 2 2 1 1 1 1 1 2 2 2 2 2 2 2
Wind_Direction
197 174 221 237 159 93 83 81 89 98 81 66 60 66 70 49 39 72 72 58 52 53 49 54 48 51 53 55 61 59 59 60 59 58 57 58 58 58 60 62 64 66 70 73 76 79 80 78 77
54 236 241 275 118 108 90 95 95 78 92 97 74 77 79 73 63 82 89 71 68 64 56 55 53 53 55 57 60 57 57 58 59 58 58 58 58 59 60 61 62 64 67 70 73 75 78 78 78
126 317 360 70 85 83 102 106 101 95 91 80 80 60 57 76 83 88 92 96 82 70 62 59 55 57 57 58 59 58 59 59 61 60 59 59 58 58 58 60 60 61 63 65 70 70 71 74 77
220 141 84 91 92 76 101 116 114 114 94 69 90 86 81 68 84 102 108 102 91 78 69 64 57 58 58 60 59 60 59 58 61 61 60 59 58 57 58 60 59 60 64 64 63 65 66 67 73
64 103 110 104 94 91 100 107 114 104 95 86 88 97 94 88 102 109 110 101 91 80 73 71 62 61 60 60 60 60 60 60 60 61 60 57 56 57 58 59 60 61 63 64 62 63 63 64 69
127 142 129 119 109 108 109 111 112 101 102 98 99 102 94 110 115 113 110 103 90 82 77 77 74 68 63 60 60 61 62 62 62 60 59 58 57 56 58 58 59 62 65 65 65 64 64 62 66
120 117 118 126 127 124 114 114 109 106 103 88 93 107 119 126 120 120 113 104 93 85 80 75 77 81 77 65 61 61 61 62 61 60 58 58 59 58 57 56 56 62 65 67 67 68 67 66 67
107 131 129 134 139 125 124 119 100 97 94 90 87 117 133 138 136 129 120 112 102 94 83 74 74 74 74 75 67 64 64 61 62 61 57 59 65 64 59 57 55 61 65 67 67 68 68 69 69
174 146 137 137 143 130 139 132 109 102 111 102 90 92 117 137 147 141 130 123 110 96 86 75 71 71 72 73 74 75 73 65 67 68 62 57 58 60 62 57 57 62 66 66 66 66 69 75 79
152 135 119 117 132 132 138 133 133 137 126 120 115 118 130 148 155 151 143 133 121 107 92 80 74 71 72 69 69 61 63 61 55 53 53 52 56 59 59 69 63 64 67 72 66 66 75 65 68
111 118 116 120 125 134 135 130 139 151 139 144 143 142 149 156 158 154 143 133 124 115 101 88 75 71 71 69 65 59 59 58 55 50 52 51 56 59 54 59 64 61 58 57 60 58 54 57 58
113 98 115 126 133 143 140 143 139 146 118 116 140 152 159 166 166 166 155 141 137 125 106 96 77 70 67 70 70 68 64 59 56 51 53 53 52 52 51 52 49 50 50 46 43 44 51 56 58
120 109 103 115 120 130 131 141 143 142 119 133 141 153 164 169 168 165 163 152 142 127 117 106 93 70 65 72 75 76 68 60 62 56 53 56 55 54 52 53 49 48 46 46 42 43 49 53 54
119 118 115 122 132 140 136 140 165 146 144 145 152 161 166 170 174 169 171 164 153 139 125 115 105 81 66 76 88 79 72 71 63 58 53 58 57 54 50 53 49 44 41 42 44 49 49 54 53
131 123 114 114 149 161 179 166 186 158 161 165 171 170 171 175 178 184 176 168 160 150 132 122 112 94 78 75 83 82 77 72 67 61 52 57 56 55 53 50 51 43 39 42 43 49 50 56 56
157 157 157 112 166 189 218 220 137 163 181 188 189 182 184 184 190 190 184 176 163 161 143 130 121 113 96 85 87 81 78 72 69 65 54 54 56 56 56 51 47 41 42 41 45 40 48 50 47
190 189 180 164 211 222 228 251 215 203 205 206 203 199 196 190 193 189 187 183 170 171 159 147 142 138 120 101 93 83 78 73 68 65 58 51 53 54 61 51 41 42 44 43 43 46 44 49 43
192 195 195 204 189 209 237 257 246 220 219 221 215 214 208 205 200 194 190 185 177 172 164 158 152 150 131 121 107 96 82 72 67 64 60 51 51 51 57 57 47 44 46 40 39 48 49 43 24
198 202 205 230 230 235 246 264 265 232 222 230 228 224 220 214 200 191 191 188 183 177 170 165 162 160 149 141 141 129 111 91 78 64 60 58 56 53 55 50 50 41 45 39 38 38 46 40 13
197 205 217 224 226 246 261 272 267 233 224 234 237 231 226 215 202 192 194 193 194 185 180 181 180 174 165 160 163 146 127 103 91 71 61 59 54 52 47 41 46 44 40 41 37 32 22 40 20
213 223 226 243 241 239 266 256 232 216 219 231 241 242 231 220 212 203 200 198 195 195 192 189 188 181 173 164 156 140 131 126 112 92 67 38 38 43 35 29 36 35 31 33 25 19 11 5 19
219 225 225 224 238 255 258 275 254 229 218 233 242 240 235 225 220 214 207 205 202 202 198 195 186 184 176 169 170 168 163 149 141 127 118 67 47 40 28 22 13 22 20 17 3 7 347 338 348
223 176 212 231 254 266 246 265 261 212 250 257 239 236 233 225 217 213 209 209 208 201 195 196 186 183 180 176 179 188 183 168 143 135 108 62 46 30 23 19 3 352 350 344 349 352 337 330 324
163 164 187 223 245 252 249 256 267 239 271 277 246 238 222 210 204 209 206 201 203 196 191 189 185 184 187 187 187 191 190 177 165 163 175 235 330 348 357 354 348 339 336 336 333 323 305 292 296
196 212 222 223 224 243 209 250 258 311 300 284 273 260 227 203 196 192 194 197 195 193 195 192 191 191 191 196 197 196 198 194 190 189 198 225 260 288 321 338 332 334 335 337 322 310 289 272 272
210 229 246 254 255 266 235 247 258 17 319 299 281 270 226 214 205 200 202 205 202 199 199 199 198 198 196 202 204 201 199 202 203 202 201 214 251 291 332 337 342 348 348 349 330 291 284 278 267
208 222 257 269 270 268 247 250 258 264 275 266 248 246 237 221 209 208 209 210 207 205 205 204 202 202 201 206 204 201 200 204 206 209 209 216 232 253 282 292 317 333 334 336 325 302 287 286 288
241 224 223 243 259 261 255 255 258 263 268 261 254 257 253 220 204 206 204 206 210 211 215 210 209 205 202 204 206 202 204 204 201 203 211 219 230 233 234 255 272 291 295 292 299 292 307 297 299
202 208 230 247 261 269 272 267 306 278 282 274 273 265 246 221 210 209 200 200 196 194 204 212 213 206 199 200 201 201 197 198 196 196 199 209 216 222 226 250 281 286 285 277 264 280 296 298 311
238 237 235 248 254 257 270 274 349 283 290 282 286 283 246 219 210 211 206 192 180 194 203 213 214 204 199 200 198 197 189 187 191 192 191 197 210 215 222 232 257 276 279 277 269 271 283 297 306
Height
1510 1509 1510 1511 1510 1511 1519 1521 1519 1521 1522 1525 1524 1524 1524 1525 1527 1534 1535 1532 1532 1531 1530 1529 1527 1527 1525 1524 1523 1523 1522 1521 1520 1520 1519 1518 1517 1516 1515 1514 1514 1513 1513 1513 1512 1512 1512 1512 1512
1511 1510 1512 1511 1509 1517 1523 1521 1522 1522 1525 1526 1525 1525 1525 1528 1531 1533 1533 1533 1533 1533 1532 1531 1529 1528 1527 1526 1525 1525 1524 1523 1522 1522 1521 1520 1519 1518 1517 1516 1515 1515 1514 1514 1513 1513 1513 1513 1513
1511 1511 1514 1510 1513 1518 1524 1522 1523 1525 1526 1526 1526 1527 1528 1531 1533 1534 1534 1534 1535 1534 1533 1532 1531 1530 1529 1528 1527 1526 1525 1525 1524 1523 1522 1521 1520 1519 1518 1517 1517 1516 1516 1515 1515 1514 1514 1514 1514
1513 1514 1514 1513 1519 1521 1521 1523 1525 1526 1527 1527 1527 1528 1531 1534 1535 1535 1535 1536 1536 1536 1535 1533 1532 1532 1531 1530 1529 1528 1527 1526 1526 1525 1524 1523 1522 1521 1520 1519 1518 1518 1517 1516 1516 1516 1515 1515 1515
1514 1514 1514 1519 1522 1523 1523 1525 1526 1525 1527 1528 1528 1530 1533 1536 1536 1536 1537 1537 1537 1537 1536 1535 1534 1533 1532 1531 1530 1529 1529 1528 1527 1526 1526 1525 1524 1523 1522 1521 1520 1519 1518 1518 1517 1517 1517 1516 1516
1515 1513 1516 1522 1524 1525 1525 1527 1527 1526 1528 1530 1530 1531 1535 1537 1537 1538 1538 1538 1538 1538 1538 1537 1535 1534 1534 1533 1532 1531 1530 1530 1529 1528 1527 1526 1525 1524 1524 1523 1522 1521 1520 1519 1519 1518 1518 1518 1518
1516 1514 1518 1521 1525 1525 1527 1528 1527 1527 1529 1531 1532 1533 1536 1538 1538 1539 1539 1539 1539 1539 1539 1539 1538 1536 1535 1534 1533 1533 1532 1531 1530 1530 1529 1528 1527 1526 1525 1524 1523 1522 1521 1521 1521 1520 1520 1520 1519
1516 1516 1519 1521 1525 1526 1528 1529 1530 1530 1531 1534 1534 1533 1537 1539 1539 1539 1540 1540 1540 1540 1540 1540 1539 1538 1538 1536 1535 1534 1533 1533 1532 1531 1530 1529 1529 1528 1527 1526 1524 1523 1523 1523 1522 1522 1522 1521 1521
1517 1518 1520 1522 1524 1526 1528 1529 1532 1533 1533 1534 1535 1536 1537 1539 1539 1540 1541 1541 1541 1541 1541 1541 1540 1540 1539 1538 1536 1536 1535 1534 1533 1533 1532 1531 1531 1530 1529 1527 1526 1525 1525 1524 1524 1524 1523 1523 1523
1517 1518 1521 1522 1523 1525 1528 1529 1531 1532 1533 1534 1536 1537 1538 1539 1540 1541 1541 1542 1542 1542 1542 1542 1541 1540 1540 1539 1538 1537 1537 1536 1535 1534 1534 1533 1532 1531 1530 1529 1528 1527 1527 1526 1526 1525 1525 1525 1525
1518 1520 1522 1524 1526 1527 1529 1531 1532 1531 1532 1534 1536 1537 1538 1539 1540 1541 1542 1542 1542 1543 1542 1542 1542 1541 1540 1539 1538 1538 1537 1537 1536 1536 1535 1534 1534 1533 1532 1532 1531 1530 1529 1529 1528 1527 1527 1526 1526
1520 1523 1524 1526 1528 1529 1529 1531 1532 1533 1534 1535 1536 1537 1538 1539 1540 1541 1542 1542 1543 1543 1542 1542 1541 1541 1540 1539 1538 1538 1538 1538 1537 1537 1536 1536 1535 1534 1534 1533 1532 1531 1530 1529 1529 1528 1528 1527 1527
1522 1525 1527 1528 1529 1530 1531 1532 1533 1534 1535 1536 1537 1538 1539 1540 1541 1542 1542 1543 1543 1543 1542 1542 1541 1541 1540 1539 1538 1538 1538 1539 1538 1538 1537 1537 1536 1536 1535 1534 1533 1533 1532 1531 1530 1530 1529 1528 1528
1524 1526 1528 1530 1530 1531 1532 1532 1533 1534 1535 1536 1537 1538 1539 1539 1540 1541 1542 1542 1543 1543 1543 1542 1541 1540 1539 1538 1537 1538 1538 1539 1539 1539 1539 1538 1537 1537 1536 1536 1535 1534 1533 1532 1531 1531 1530 1529 1529
1525 1526 1528 1530 1530 1531 1532 1531 1532 1534 1535 1536 1536 1537 1538 1539 1540 1540 1541 1542 1543 1543 1543 1542 1542 1541 1540 1538 1538 1538 1539 1540 1540 1540 1539 1539 1538 1538 1537 1537 1536 1535 1534 1533 1532 1532 1531 1530 1530
1524 1525 1529 1530 1530 1531 1532 1533 1532 1534 1534 1535 1535 1537 1537 1538 1539 1540 1541 1541 1542 1542 1543 1542 1542 1542 1541 1540 1540 1540 1540 1541 1541 1540 1540 1540 1539 1538 1537 1537 1536 1535 1535 1534 1533 1533 1532 1532 1531
1523 1526 1529 1530 1530 1530 1530 1531 1531 1533 1534 1534 1535 1535 1536 1537 1538 1539 1540 1541 1541 1542 1542 1542 1542 1542 1542 1541 1541 1541 1541 1541 1541 1541 1541 1540 1540 1539 1538 1537 1537 1536 1535 1534 1534 1533 1533 1532 1531
1526 1526 1528 1530 1529 1530 1530 1529 1530 1532 1532 1532 1533 1534 1534 1535 1536 1537 1538 1539 1540 1541 1542 1542 1542 1542 1542 1542 1542 1542 1542 1542 1542 1542 1541 1540 1540 1539 1539 1538 1537 1536 1536 1535 1534 1533 1533 1532 1531
1521 1524 1527 1528 1528 1530 1528 1527 1527 1529 1530 1530 1531 1532 1532 1533 1535 1536 1537 1538 1539 1540 1541 1541 1542 1542 1542 1542 1542 1542 1542 1542 1542 1542 1541 1541 1540 1539 1539 1538 1537 1536 1536 1535 1534 1533 1533 1532 1531
1522 1525 1526 1527 1528 1528 1526 1526 1524 1526 1528 1529 1529 1529 1530 1531 1533 1534 1535 1536 1538 1539 1539 1541 1541 1541 1541 1542 1542 1542 1542 1542 1542 1541 1541 1541 1540 1539 1539 1538 1537 1536 1536 1535 1534 1533 1533 1532 1531
1521 1523 1524 1526 1527 1526 1526 1524 1521 1523 1525 1527 1528 1528 1528 1529 1530 1532 1533 1534 1536 1537 1538 1539 1540 1540 1541 1541 1541 1542 1542 1542 1542 1541 1541 1540 1540 1539 1538 1538 1537 1536 1535 1535 1534 1533 1533 1532 1532
1522 1521 1523 1526 1527 1526 1526 1527 1518 1518 1521 1523 1525 1525 1526 1527 1528 1529 1531 1532 1533 1535 1536 1537 1538 1539 1539 1540 1540 1540 1541 1541 1541 1541 1540 1540 1540 1539 1538 1537 1537 1536 1535 1534 1534 1533 1533 1532 1531
1521 1522 1524 1524 1524 1525 1523 1525 1516 1515 1518 1519 1521 1523 1524 1525 1526 1527 1528 1530 1531 1533 1534 1535 1536 1537 1537 1538 1538 1539 1540 1540 1540 1540 1540 1540 1539 1538 1538 1537 1536 1535 1535 1534 1533 1532 1532 1531 1531
1522 1523 1524 1523 1523 1529 1522 1524 1519 1513 1515 1516 1519 1521 1522 1523 1524 1525 1526 1528 1529 1530 1531 1533 1534 1534 1535 1536 1536 1537 1538 1538 1539 1539 1539 1539 1538 1538 1537 1536 1535 1535 1534 1533 1532 1531 1531 1530 1530
1521 1523 1529 1530 1529 1524 1520 1523 1518 1512 1515 1516 1518 1519 1520 1522 1523 1523 1524 1525 1526 1528 1529 1530 1531 1532 1533 1534 1535 1535 1536 1537 1537 1538 1537 1537 1537 1536 1536 1535 1534 1534 1533 1532 1531 1530 1530 1529 1528
1518 1520 1527 1532 1527 1520 1520 1520 1513 1514 1517 1518 1518 1519 1519 1520 1521 1522 1522 1523 1524 1525 1526 1528 1529 1530 1531 1532 1533 1534 1534 1535 1536 1536 1536 1536 1535 1535 1535 1534 1533 1532 1531 1530 1530 1529 1528 1528 1527
1518 1518 1516 1520 1520 1523 1517 1513 1513 1513 1515 1516 1517 1518 1518 1519 1520 1520 1521 1521 1522 1523 1524 1525 1527 1528 1528 1530 1531 1532 1533 1533 1533 1534 1534 1534 1534 1533 1533 1532 1532 1531 1530 1529 1528 1527 1527 1526 1526
1517 1516 1519 1521 1526 1524 1518 1514 1512 1510 1511 1513 1515 1516 1517 1518 1518 1518 1519 1519 1520 1521 1522 1523 1524 1525 1526 1527 1529 1529 1530 1531 1531 1532 1532 1532 1532 1532 1531 1531 1530 1529 1528 1527 1526 1526 1525 1525 1524
1518 1519 1517 1516 1517 1522 1521 1515 1506 1508 1510 1512 1514 1515 1516 1517 1517 1517 1517 1518 1518 1519 1520 1520 1521 1522 1523 1525 1526 1527 1528 1529 1529 1530 1530 1530 1530 1530 1529 1529 1528 1527 1526 1526 1525 1524 1524 1523 1522
1514 1513 1515 1519 1518 1516 1517 1515 1507 1509 1511 1512 1513 1514 1515 1516 1516 1516 1516 1516 1516 1517 1517 1518 1519 1520 1520 1522 1523 1524 1525 1526 1527 1527 1527 1528 1528 1528 1527 1527 1526 1525 1525 1524 1523 1523 1522 1521 1520